Regional Weather Roundup
Issued by NWS

Home | Current Version | Previous Version | Text Only | Print | Product List | Glossary On
Versions: 1 2 3 4 5 6 7 8 9 10 11 12 13 14 15 16 17 18 19 20 21 22 23 24 25 26 27 28 29 30 31 32 33 34 35 36 37 38 39 40 41 42 43 44 45 46 47 48 49 50
000
ASUS42 KFFC 300910
RWRGA
WEATHER ROUNDUP FOR GEORGIA
NATIONAL WEATHER SERVICE PEACHTREE CITY GA
500 AM EDT THU JUL 30 2015

NOTE: "FAIR" INDICATES FEW OR NO CLOUDS BELOW 12,000 FEET WITH NO
SIGNIFICANT WEATHER AND/OR OBSTRUCTIONS TO VISIBILITY.

* = USE WITH CAUTION. THE STATIONS MARKED WITH AN ASTERISK MAY NOT
REPORT WEATHER SUCH AS PRECIPITATION, FOG, OR THUNDER AND ARE NOT
QUALITY CONTROLLED BY NWS.

THE REMARK "TC" DENOTES TEMPERATURE READING IN DEGREES CELSIUS.

GAZ001>058-301000-
NORTH GEORGIA

CITY           SKY/WX    TMP DP  RH WIND       PRES   REMARKS
ATLANTA        MOCLDY    78  73  84 SE5       29.96S
ATHENS         CLEAR     74  72  93 CALM      29.96S
CHAMBLEE       PTCLDY    76  74  93 CALM      29.96S
PEACHTREE CITY CLEAR     76  74  93 CALM      29.96S
ROME           PTCLDY    77  73  87 CALM      29.98R
WEST ATLANTA   PTCLDY    76  74  93 CALM      29.96R
GAINESVILLE    PTCLDY    74  70  87 CALM      29.99F
CARTERSVILLE   PTCLDY    74  71  91 CALM      29.99R


CITY           SKY/WX    TMP DP  RH WIND       PRES   REMARKS
DALTON*        PTCLDY    73  73 100 CALM      29.99S
MARIETTA       PTCLDY    78  76  92 N5        29.97S
BLAIRSVILLE*     N/A     70  63  77 CALM      30.06R HAZE
$$

GAZ059>098-102>109-301000-
CENTRAL GEORGIA

CITY           SKY/WX    TMP DP  RH WIND       PRES   REMARKS
AUGUSTA-BUSH   PTCLDY    77  74  90 CALM      29.92F
AUGUSTA-DANIEL PTCLDY    77  71  82 CALM      29.94F
COLUMBUS       CLEAR     78  72  81 CALM      29.92F
MACON          CLEAR     76  74  93 CALM      29.93F
ROBINS AFB     CLEAR     76  74  92 CALM      29.92F


CITY           SKY/WX    TMP DP  RH WIND       PRES   REMARKS
LAGRANGE*      CLEAR     77  77 100 CALM      29.95F
SYLVANIA*      CLEAR     76  75  96 CALM      29.94S
MILLEDGEVILLE* CLOUDY    79  73  83 CALM      29.94F
$$

GAZ099>101-110>166-301000-
SOUTH GEORGIA

CITY           SKY/WX    TMP DP  RH WIND       PRES   REMARKS
SAVANNAH       CLEAR     76  73  91 N3        29.93F
VALDOSTA       PTCLDY    75  75 100 CALM      29.94S
ALMA           FOG       74  73  97 CALM      29.92F VSB 3/4
ST SIMONS      CLEAR     76  74  93 N6        29.92S
FT STEWART     CLEAR     74  72  92 CALM      29.91F
ALBANY         CLOUDY    77  75  93 SW5       29.96S FOG
HUNTER AFB     CLEAR     78  78 100 NW6       29.90F
MOODY AFB      CLOUDY    76  74  94 SW5       29.93S
BRUNSWICK      CLEAR     73  72  94 CALM      29.93S


CITY           SKY/WX    TMP DP  RH WIND       PRES   REMARKS
BAINBRIDGE*    MOCLDY    79  77  94 SE5       29.94R FOG
MOULTRIE*      PTCLDY    75  73  94 CALM      29.95S FOG
VIDALIA*       RAIN      77  73  88 CALM      29.93S
WAYCROSS*      PTCLDY    77  77 100 CALM      29.92S FOG
DOUGLAS*       MOCLDY    77  75  94 CALM      29.94F FOG
$$


USA.gov is the U.S. government's official web portal to all federal, state and local government web resources and services.